Погода в Шейно

Россия / Пензенская область     53°21′47″N   43°12′33″E
темп.,
°C
ветер,
м/с
пор.,
м/с
влажн.,
%
обл.,
%
осадки,
мм/ч
давл.,
гПа
погр.,
м
14 апреля, ср
ср1400:00+10юв496699 0.0 1027138
03:00+8юв4117026 0.0 1026146
06:00+7юв4969100 0.0 1025140
09:00+13юв6104963 0.0 1024400
12:00+18юв793379 0.0 10231081
15:00+19юв7830100 0.0 10211605
18:00+16юв374686 0.0 1020132
21:00+11вюв46595 0.0 102180
15 апреля, чт
чт1500:00+10вюв4765100 0.0 101995
03:00+8юв347066 0.0 101957
06:00+8вюв367437 0.0 101989
09:00+14юв4754100 0.0 1018333
12:00+18вюв564031 0.0 10171001
15:00+19вюв5636100 0.0 10161705
18:00+17в364979 0.0 1016109
21:00+13в346181 0.0 101643
16 апреля, пт
пт1600:00+11всв467099 0.0 101676
03:00+10всв4777100 0.0 1017108
06:00+9всв41080100 0.0 1017172
09:00+14в6959100 0.0 1018441
12:00+18в564578 0.0 10181104
15:00+19в453699 0.0 10182220
18:00+16св585894 0.4 1018216
21:00+13всв71374100 1.4 1020432
17 апреля, сб
сб1700:00+11всв6128192 0.0 1020359
03:00+8всв6128796 0.0 1021298
06:00+7всв71386100 0.0 1022333
09:00+9всв81175100 0.0 1022460
12:00+15в89575 0.0 1022998
15:00+16в895237 0.3 10221589
18:00+14всв811585 0.3 1022805
21:00+10всв815585 0.3 1024508
18 апреля, вс
вс1800:00+7в5125760 0.0 1025393
03:00+5всв6126295 0.0 1026334
06:00+4всв6136531 0.0 1026345
09:00+9в811481 0.0 1026792
12:00+12всв78385 0.0 10261475
15:00+13всв67365 0.0 10261956
18:00+12всв584616 0.0 1026675
21:00+9всв61256100 0.0 1028475